Location: Toronto
(43.6667°N, 79.4167°W)
Time: 10:53:44
(UTC-04:00)

X-37B - Pass Details

Date: 22 June 2021
Orbit: 383 x 392 km, 45.0° (Epoch: 01 July)

Event Time Altitude Azimuth Distance (km) Brightness Sun altitude
Exits shadow 03:52:36 20° 266° (W) 952 2.2 -14.3°
Maximum altitude 03:54:22 41° 205° (SSW) 573 0.9 -14.1°
Drops below altitude 10° 03:57:22 10° 133° (SE) 1,402 3.3 -13.8°
Sets 03:59:30 0° 126° (SE) 2,255 4.5 -13.5°
